CZ-6A DEB, 54519

Orbit data source: Space-Track

CZ-6A DEB, 54519 is space debris in SSO originally from a launch on Fri, 11 Nov 2022 UTC launched from the Taiyaun Space Center, China (TSC). Debris objects in space refer to the collection of defunct objects orbiting the Earth. Examples of debris include non-operational satellites, rocket bodies, and fragments generated from explosions, collisions, or faulty payload assembly.

Loading next visibility...
Identifier
54519, 2022-151JX
Orbit
SSO
Country
Flag of CNCN / PRC
Related business
Manufacturer
SAST
Mission
Spacecraft
Bus & Motor
Unknown
Mass
Unknown
Launch date (UTC)
2022-11-11 (4 years ago)
Launch vehicle
Unknown
Launch site
Taiyaun Space Center, China (TSC)
Object type
Payload
Rocket body
Debris
Shape & HBR
Unknown shape, 0.1 m
Radar Cross Section
Medium (>0.1 m² and <1 m²)

Expand to show TLE details & history
Last TLE update: 2 days ago

TLE from 2 days ago
0 CZ-6A DEB
1 54519U 22151JX  26171.35712815  .00001208  00000-0  32000-3 0  9993
2 54519  98.5188 198.1739 0118088 328.9723  30.4529 14.46614428189374
Epoch: 2026-06-20T08:34Z
TLE epoch observation values (Epoch: 2026-06-20T08:34:15.872Z)
Latitude
-0.00005°
Longitude
161.03486°
Altitude
667.502 km
Speed
7.561 km/s
True Right ascension
13h 12m 41s
True Declination
0° 00' 00"
Sunlit
Object was in daylight at epoch
Visualization orbit readout
Latitude
Unknown
Longitude
Unknown
Altitude
Unknown
Speed
Unknown
Apparent Right ascension
Unknown
Apparent Declination
Unknown
Sunlit
N/A
Visualization observer readout
Local Sidereal Time
21:24:30
Azimuth
Unknown
Elevation
Unknown
Doppler factor
Unknown
Orbital elements
Apogee altitude
817.825 km
Perigee altitude
649.857 km
Semi-major axis
7,111.978 km
Eccentricity
0.01181
Inclination
98.5188°
RAAN
198.1739°
Arg. of periapsis
328.9723°
True anomaly
31.14755°
Mean anomaly
30.4529°
Eccentric anomaly
30.79934°
Mean motion
3.61874 °/min
Orbital period
99.48 mins
BSTAR
0.00032
Loading maneuver chart data...
Computing Atmospheric mass density...
Loading historical data...
Loading historical data...
Loading historical data...
Loading historical data...
Loading historical data...
Loading historical data...
Loading historical data...

Documentation

Showing up to 5 results
|